NOAA 16 DEB, 41132

Orbit data source: Space-Track

NOAA 16 DEB, 41132 is space debris in SSO originally from a launch on Thu, 21 Sep 2000 UTC launched from the Air Force Western Test Range (AFWTR). Debris objects in space refer to the collection of defunct objects orbiting the Earth. Examples of debris include non-operational satellites, rocket bodies, and fragments generated from explosions, collisions, or faulty payload assembly.

Loading next visibility...
Identifier
41132, 2000-055BP
Orbit
SSO
Country
Flag of USUS
Related business
Manufacturer
Unknown
Mission
Spacecraft
Bus & Motor
Unknown
Mass
Unknown
Launch date (UTC)
2000-09-21 (25 years ago)
Launch vehicle
Unknown
Launch site
Air Force Western Test Range (AFWTR)
Object type
Payload
Rocket body
Debris
Shape & HBR
Unknown
Radar Cross Section
Small (<0.1 m²)

Expand to show TLE details & history
Last TLE update: 1 day ago

TLE from 1 day ago
0 NOAA 16 DEB
1 41132U 00055BP  25260.38028699  .00009756  00000-0  21890-2 0  9990
2 41132  98.8564  56.5582 0031137 112.3796 248.0704 14.56482479509850
Epoch: 2025-09-17T09:07Z
TLE epoch observation values (Epoch: 2025-09-17T09:07:36.795Z)
Latitude
-0.00008°
Longitude
-76.90217°
Altitude
715.811 km
Speed
7.493 km/s
True Right ascension
03h 46m 13s
True Declination
0° 00' 00"
Sunlit
Object was in full shadow at epoch
Visualization orbit readout
Latitude
Unknown
Longitude
Unknown
Altitude
Unknown
Speed
Unknown
Apparent Right ascension
Unknown
Apparent Declination
Unknown
Sunlit
N/A
Visualization observer readout
Local Sidereal Time
13:51:01
Azimuth
Unknown
Elevation
Unknown
Doppler factor
Unknown
Orbital elements
Apogee altitude
723.716 km
Perigee altitude
679.627 km
Semi-major axis
7,079.809 km
Eccentricity
0.00311
Inclination
98.8564°
RAAN
56.5582°
Arg. of periapsis
112.3796°
True anomaly
247.7399°
Mean anomaly
248.0704°
Eccentric anomaly
247.9051°
Mean motion
3.64343 °/min
Orbital period
98.81 mins
BSTAR
0.002189
Loading maneuver chart data...
Computing Atmospheric mass density...
Loading historical data...
Loading historical data...
Loading historical data...
Loading historical data...
Loading historical data...
Loading historical data...
Loading historical data...

Documentation

Showing up to 5 results
|